Regional Weather Roundup
Issued by NWS

Home | Current Version | Previous Version | Text Only | Print | Product List | Glossary Off
Versions: 1 2 3 4 5 6 7 8 9 10 11 12 13 14 15 16 17 18 19 20 21 22 23 24 25 26 27 28 29 30 31 32 33 34 35 36 37 38 39 40 41 42 43 44 45 46 47 48 49 50

000
ASUS43 KOAX 032010
RWRNE

WEATHER ROUNDUP FOR NEBRASKA
NATIONAL WEATHER SERVICE OMAHA NE
200 PM CST SAT DEC 03 2016

NOTES: SATELLITE DATA IS BEING USED TO AUGMENT CLOUD COVER ABOVE
       12000 FEET.
       "FAIR" INDICATES FEW OR NO CLOUDS BELOW 12,000 FEET WITH NO
       SIGNIFICANT WEATHER AND/OR OBSTRUCTIONS TO VISIBILITY.

  * THESE STATIONS DO NOT REPORT WEATHER SUCH AS RAIN...SNOW OR FOG.

NEZ001>004-019>022-054>056-032100-
NEBRASKA PANHANDLE

CITY           SKY/WX    TMP DP  RH WIND       PRES   REMARKS
SCOTTSBLUFF    CLOUDY    43  11  27 W12G23    29.94F
ALLIANCE       SUNNY     43  11  27 W20G26    29.91F
CHADRON        CLOUDY    42  12  29 W18       29.92S
KIMBALL        SUNNY     42  14  32 W22G30    29.95F
SIDNEY         SUNNY     43  11  27 W20G29    29.95F
$$

NEZ057>060-069>072-079>082-032100-
SOUTHWEST NEBRASKA

CITY           SKY/WX    TMP DP  RH WIND       PRES   REMARKS
NORTH PLATTE   SUNNY     47  23  38 S17G24    30.00F
IMPERIAL       SUNNY     45  17  32 SW13G20   30.00F
LEXINGTON      CLOUDY    38  32  78 S17       30.07F WCI  29
MCCOOK         CLOUDY    39  32  76 S12       30.06F WCI  32
OGALLALA       SUNNY     47  18  31 SW10      29.97F
$$

NEZ005>010-023>029-035>040-094-032100-
NORTH CENTRAL NEBRASKA

CITY           SKY/WX    TMP DP  RH WIND       PRES   REMARKS
VALENTINE      SUNNY     47  14  26 SW23      29.91F
AINSWORTH      SUNNY     47  23  39 SW22G29   29.94F
BROKEN BOW     MOSUNNY   40  30  67 S21G36    30.03F WCI  30
O`NEILL        CLOUDY    40  32  71 S21G29    30.03F WCI  31
ORD            CLOUDY    37  30  75 S17G25    30.07F WCI  27
THEDFORD       SUNNY     47  22  37 SW21G30   29.95F
$$

NEZ041-046>049-061>064-073>077-083>087-032100-
SOUTH CENTRAL NEBRASKA

CITY           SKY/WX    TMP DP  RH WIND       PRES   REMARKS
GRAND ISLAND   LGT SNOW  33  33 100 S8        30.13F FOG     WCI  26
AURORA         LGT SNOW  32  32 100 S6        30.15F WCI  27
HASTINGS       LGT SNOW  33  32  96 SE7       30.14F VSB 3/4 WCI  27
HEBRON         LGT SNOW  32  32  99 CALM      30.17F VSB 1
HOLDREGE       LGT SNOW  33  32  96 S9        30.09F WCI  25
KEARNEY *      CLOUDY    36  30  80 S9        30.11F WCI  29
YORK           LGT SNOW  32  32 100 S5        30.16F WCI  27
$$

NEZ011>018-030>034-042>045-032100-
NORTHEAST NEBRASKA

CITY           SKY/WX    TMP DP  RH WIND       PRES   REMARKS
NORFOLK        LGT SNOW  33  31  92 S13       30.13F FOG     WCI  24
ALBION         LGT RAIN  33  32  94 S7        30.12F WCI  27
BLAIR          LGT SNOW  33  32  96 SE6       30.20F WCI  28
FREMONT        LGT SNOW  33  33 100 SE5       30.19F WCI  28
TEKAMAH        LGT SNOW  33  31  92 SE7       30.22F VSB 3/4 WCI  27
WAYNE          LGT SNOW  33  33  97 S9        30.16F WCI  26
$$

NEZ050>053-065>068-078-088>093-032100-
SOUTHEAST NEBRASKA

CITY           SKY/WX    TMP DP  RH WIND       PRES   REMARKS
LINCOLN        LGT SNOW  33  32  96 SE5       30.20F VSB 3/4 WCI  29
OMAHA EPPLEY   LGT SNOW  33  30  88 SE7       30.22F VSB 3/4 WCI  27
BEATRICE       LGT SNOW  34  33  97 NE3       30.18F
FALLS CITY     CLOUDY    38  32  79 NE7       30.20F WCI  33
NEBRASKA CITY  LGT SNOW  32  32  99 NE3       30.21F VSB 3/4
PLATTSMOUTH    SNOW      33  31  92 E3        30.21F VSB 1/2
$$

NEZ044-045-051>053-067-032100-
OMAHA AREA

CITY           SKY/WX    TMP DP  RH WIND       PRES   REMARKS
OMAHA EPPLEY   LGT SNOW  33  30  88 SE7       30.22F VSB 3/4 WCI  27
BLAIR          LGT SNOW  33  32  96 SE6       30.20F WCI  28
FREMONT        LGT SNOW  33  33 100 SE5       30.19F WCI  28
MILLARD        LGT SNOW  33  32  95 SE5       30.22F WCI  29
OFFUTT AFB     LGT SNOW  32  32 100 E5        30.21F VSB 1   WCI  27
PLATTSMOUTH    SNOW      33  31  92 E3        30.21F VSB 1/2
WAHOO          LGT SNOW  33  32  98 SE6       30.20F WCI  27
$$



USA.gov is the U.S. government's official web portal to all federal, state and local government web resources and services.